Weather in Stepanivka Persha

Ukraine / Zaporizhia Region     46°28′48″N   35°33′09″E
temp.,
°C
wind,
m/s
gust,
m/s
humid.,
%
clouds,
%
prec.,
mm/h
press.,
hPa
HPBL,
m
8 august, mon
mon800:00+26n58400 0.0 1013103
03:00+24n59420 0.0 1013146
06:00+23ne59395 0.0 1014146
09:00+30ene68290 0.0 1014524
12:00+31ese78330 0.0 10141120
15:00+31se56380 0.0 1014608
18:00+31se26290 0.0 1013608
21:00+27n44320 0.0 101326
9 august, tue
tue900:00+26nne58310 0.0 1014102
03:00+25nne59340 0.0 1013117
06:00+24ne57420 0.0 1014114
09:00+31ene67290 0.0 1014457
12:00+30ese79410 0.0 1014739
15:00+31ese69330 0.0 1013796
18:00+32e610280 0.0 1012705
21:00+28e46380 0.0 101152
10 august, wed
wed1000:00+27ne5113463 0.0 1011164
03:00+26ene61239100 0.0 1010200
06:00+25ene61149100 0.0 1011181
09:00+29e9124077 0.0 1011810
12:00+31e10133469 0.0 10101534
15:00+32e8113016 0.0 10091676
18:00+32e71030100 0.0 10081409
21:00+30ne51136100 0.0 1007178
11 august, thu
thu1100:00+27ne712405 0.0 1007216
03:00+26ne51147100 0.0 1007208
06:00+26ene7135268 0.0 1008333
09:00+28e9125378 0.0 1009772
12:00+29e9114766 0.1 10101003
15:00+29ene7104874 0.8 1010699
18:00+30ne473858 0.0 1009623
21:00+26ne8164898 0.6 1010343
12 august, fri
fri1200:00+25nne9175696 2.8 1010422
03:00+24ne10176253 3.6 1010486
06:00+23ne7146865 3.8 1010428
09:00+27ese1114750 4.5 1011713
12:00+27e89560 1.2 1012752
15:00+28e710541 1.4 1011756
18:00+30ene59480 0.1 1010552
21:00+26ne48580 4.3 1010122